| time (UTC) | temp F | wind direction | speed MPH | gust MPH | rain 1hr in | rain 24hr in | rain mn in | humidity % | barometer mb |
| 20260509235206 | 59 | 254 | 3.0 | 5.0 | 0.00 | 0.00 | 0.00 | 78 | 1031.3 |
| 20260509234205 | 59 | 173 | 1.0 | 3.0 | 0.00 | 0.00 | 0.00 | 82 | 1031.1 |
| 20260509233705 | 58 | 208 | 1.0 | 3.0 | 0.00 | 0.00 | 0.00 | 83 | 1031.1 |
| 20260509232204 | 58 | 178 | 0.0 | 2.0 | 0.00 | 0.00 | 0.00 | 86 | 1031.1 |
| 20260509231205 | 57 | 181 | 1.0 | 3.0 | 0.00 | 0.00 | 0.00 | 87 | 1031.0 |
| 20260509230704 | 57 | 184 | 1.0 | 3.0 | 0.00 | 0.00 | 0.00 | 88 | 1031.2 |
| 20260509225704 | 57 | 182 | 0.0 | 2.0 | 0.00 | 0.00 | 0.00 | 88 | 1031.1 |
| 20260509225204 | 57 | 181 | 1.0 | 2.0 | 0.00 | 0.00 | 0.00 | 89 | 1031.0 |
| 20260509223205 | 56 | 180 | 0.0 | 1.0 | 0.00 | 0.00 | 0.00 | 90 | 1030.9 |
| 20260509222205 | 56 | 180 | 1.0 | 2.0 | 0.00 | 0.00 | 0.00 | 90 | 1030.7 |
| 20260509221206 | 55 | 210 | 0.0 | 1.0 | 0.00 | 0.00 | 0.00 | 90 | 1030.6 |
| 20260509220705 | 55 | 210 | 0.0 | 0.0 | 0.00 | 0.00 | 0.00 | 89 | 1030.6 |
| 20260509214704 | 55 | 212 | 0.0 | 1.0 | 0.00 | 0.00 | 0.00 | 90 | 1030.3 |
| 20260509213205 | 55 | 225 | 1.0 | 2.0 | 0.00 | 0.00 | 0.00 | 90 | 1030.0 |
| 20260509212204 | 55 | 225 | 0.0 | 2.0 | 0.00 | 0.00 | 0.00 | 89 | 1029.9 |
| 20260509211705 | 55 | 225 | 0.0 | 1.0 | 0.00 | 0.00 | 0.00 | 89 | 1029.8 |
| 20260509210704 | 55 | 223 | 0.0 | 2.0 | 0.00 | 0.00 | 0.00 | 89 | 1029.8 |
| 20260509205704 | 55 | 216 | 0.0 | 1.0 | 0.00 | 0.01 | 0.00 | 89 | 1029.7 |
| 20260509204705 | 55 | 216 | 1.0 | 3.0 | 0.00 | 0.01 | 0.00 | 89 | 1029.6 |
| 20260509203705 | 55 | 194 | 0.0 | 0.0 | 0.00 | 0.01 | 0.00 | 89 | 1029.5 |
| 20260509203204 | 55 | 194 | 0.0 | 1.0 | 0.00 | 0.01 | 0.00 | 89 | 1029.5 |
| 20260509202204 | 55 | 194 | 0.0 | 1.0 | 0.00 | 0.01 | 0.00 | 89 | 1029.4 |
| 20260509201705 | 55 | 194 | 0.0 | 1.0 | 0.00 | 0.01 | 0.00 | 89 | 1029.4 |
| 20260509201204 | 55 | 194 | 0.0 | 1.0 | 0.00 | 0.01 | 0.00 | 89 | 1029.3 |
| 20260509200204 | 55 | 194 | 0.0 | 1.0 | 0.00 | 0.01 | 0.00 | 89 | 1029.2 |
| 20260509195205 | 55 | 194 | 0.0 | 0.0 | 0.00 | 0.01 | 0.00 | 89 | 1029.2 |
| 20260509193705 | 55 | 194 | 0.0 | 0.0 | 0.00 | 0.01 | 0.00 | 89 | 1029.1 |
| 20260509193204 | 55 | 194 | 0.0 | 0.0 | 0.00 | 0.01 | 0.00 | 89 | 1029.0 |
| 20260509192705 | 55 | 194 | 0.0 | 0.0 | 0.00 | 0.01 | 0.00 | 89 | 1029.0 |
| 20260509191704 | 55 | 194 | 0.0 | 0.0 | 0.00 | 0.01 | 0.00 | 89 | 1028.9 |
| 20260509190205 | 55 | 194 | 0.0 | 0.0 | 0.00 | 0.01 | 0.00 | 88 | 1028.7 |
| 20260509184704 | 55 | 194 | 0.0 | 0.0 | 0.00 | 0.01 | 0.00 | 89 | 1028.6 |
| 20260509183205 | 56 | 194 | 0.0 | 0.0 | 0.00 | 0.01 | 0.00 | 89 | 1028.4 |
| 20260509181205 | 56 | 194 | 0.0 | 0.0 | 0.00 | 0.01 | 0.00 | 89 | 1028.3 |
| 20260509180705 | 56 | 194 | 0.0 | 0.0 | 0.00 | 0.01 | 0.00 | 89 | 1028.2 |
| 20260509180206 | 55 | 194 | 0.0 | 0.0 | 0.00 | 0.03 | 0.00 | 89 | 1028.2 |
| 20260509175204 | 56 | 194 | 1.0 | 3.0 | 0.00 | 0.06 | 0.00 | 89 | 1028.2 |
| 20260509174204 | 56 | 236 | 0.0 | 0.0 | 0.00 | 0.08 | 0.00 | 90 | 1028.2 |
| 20260509173705 | 56 | 236 | 0.0 | 0.0 | 0.00 | 0.08 | 0.00 | 90 | 1028.2 |
| 20260509173205 | 56 | 236 | 1.0 | 2.0 | 0.00 | 0.08 | 0.00 | 90 | 1028.2 |
| 20260509172204 | 56 | 236 | 0.0 | 2.0 | 0.00 | 0.08 | 0.00 | 90 | 1028.2 |
| 20260509170705 | 56 | 236 | 0.0 | 0.0 | 0.00 | 0.09 | 0.00 | 90 | 1028.3 |
| 20260509170204 | 56 | 236 | 0.0 | 0.0 | 0.00 | 0.09 | 0.00 | 90 | 1028.3 |
| 20260509163205 | 55 | 236 | 1.0 | 3.0 | 0.00 | 0.11 | 0.00 | 90 | 1028.4 |
| 20260509162204 | 55 | 236 | 1.0 | 3.0 | 0.00 | 0.11 | 0.00 | 90 | 1028.4 |
| 20260509161704 | 55 | 194 | 1.0 | 3.0 | 0.00 | 0.11 | 0.00 | 90 | 1028.4 |
| 20260509160204 | 55 | 103 | 1.0 | 2.0 | 0.00 | 0.11 | 0.00 | 90 | 1028.5 |
| 20260509155205 | 56 | 200 | 0.0 | 1.0 | 0.00 | 0.11 | 0.00 | 90 | 1028.5 |
| 20260509153703 | 56 | 200 | 0.0 | 0.0 | 0.00 | 0.11 | 0.00 | 90 | 1028.5 |
| 20260509151705 | 56 | 200 | 0.0 | 1.0 | 0.00 | 0.11 | 0.00 | 90 | 1028.5 |
| 20260509145704 | 57 | 204 | 1.0 | 2.0 | 0.00 | 0.11 | 0.00 | 90 | 1028.6 |
| 20260509145206 | 57 | 204 | 1.0 | 3.0 | 0.00 | 0.11 | 0.00 | 90 | 1028.6 |
| 20260509143704 | 57 | 224 | 1.0 | 3.0 | 0.00 | 0.11 | 0.00 | 90 | 1028.5 |
| 20260509143204 | 57 | 262 | 0.0 | 2.0 | 0.00 | 0.11 | 0.00 | 90 | 1028.5 |
| 20260509141204 | 57 | 262 | 0.0 | 3.0 | 0.00 | 0.11 | 0.00 | 90 | 1028.5 |
| 20260509140204 | 57 | 262 | 1.0 | 3.0 | 0.00 | 0.11 | 0.00 | 90 | 1028.6 |
| 20260509135204 | 57 | 225 | 2.0 | 5.0 | 0.00 | 0.11 | 0.00 | 90 | 1028.5 |
| 20260509134704 | 57 | 232 | 0.0 | 2.0 | 0.00 | 0.11 | 0.00 | 90 | 1028.5 |
| 20260509133704 | 57 | 231 | 1.0 | 3.0 | 0.00 | 0.11 | 0.00 | 90 | 1028.6 |
| 20260509133205 | 57 | 250 | 1.0 | 2.0 | 0.00 | 0.11 | 0.00 | 90 | 1028.6 |
| 20260509132706 | 57 | 190 | 0.0 | 1.0 | 0.00 | 0.11 | 0.00 | 90 | 1028.6 |
| 20260509130705 | 57 | 190 | 0.0 | 1.0 | 0.00 | 0.11 | 0.00 | 89 | 1028.5 |
| 20260509125706 | 57 | 121 | 0.0 | 1.0 | 0.00 | 0.11 | 0.00 | 89 | 1028.5 |
| 20260509125205 | 57 | 141 | 0.0 | 2.0 | 0.00 | 0.11 | 0.00 | 89 | 1028.5 |
| 20260509122206 | 58 | 205 | 1.0 | 3.0 | 0.00 | 0.11 | 0.00 | 89 | 1028.7 |
| 20260509120705 | 58 | 144 | 1.0 | 2.0 | 0.00 | 0.11 | 0.00 | 88 | 1028.7 |
| 20260509120206 | 58 | 144 | 0.0 | 2.0 | 0.00 | 0.11 | 0.00 | 88 | 1028.6 |
| 20260509115706 | 58 | 189 | 1.0 | 3.0 | 0.00 | 0.11 | 0.00 | 88 | 1028.6 |
| 20260509113206 | 57 | 184 | 0.0 | 3.0 | 0.00 | 0.11 | 0.00 | 88 | 1028.5 |
| 20260509112205 | 57 | 211 | 0.0 | 3.0 | 0.00 | 0.11 | 0.00 | 88 | 1028.3 |
| 20260509110706 | 58 | 218 | 1.0 | 3.0 | 0.00 | 0.11 | 0.00 | 88 | 1028.2 |
| 20260509105705 | 58 | 223 | 2.0 | 3.0 | 0.00 | 0.11 | 0.00 | 88 | 1028.2 |
| 20260509104705 | 58 | 270 | 1.0 | 3.0 | 0.00 | 0.11 | 0.00 | 88 | 1028.2 |
| 20260509102706 | 58 | 144 | 0.0 | 1.0 | 0.00 | 0.11 | 0.00 | 88 | 1028.1 |
| 20260509101205 | 58 | 144 | 0.0 | 2.0 | 0.00 | 0.11 | 0.00 | 88 | 1028.2 |
| 20260509100705 | 58 | 144 | 0.0 | 0.0 | 0.00 | 0.11 | 0.00 | 88 | 1028.2 |
| 20260509100206 | 58 | 144 | 0.0 | 0.0 | 0.00 | 0.11 | 0.00 | 88 | 1028.3 |
| 20260509095205 | 58 | 144 | 0.0 | 0.0 | 0.00 | 0.11 | 0.00 | 88 | 1028.2 |
| 20260509094205 | 58 | 144 | 0.0 | 1.0 | 0.00 | 0.11 | 0.00 | 88 | 1028.1 |
| 20260509092207 | 58 | 211 | 1.0 | 2.0 | 0.00 | 0.11 | 0.00 | 87 | 1028.0 |
| 20260509091206 | 58 | 211 | 0.0 | 0.0 | 0.00 | 0.11 | 0.00 | 87 | 1028.0 |
| 20260509090205 | 58 | 211 | 0.0 | 2.0 | 0.00 | 0.11 | 0.00 | 87 | 1028.0 |
| 20260509084206 | 58 | 232 | 0.0 | 2.0 | 0.00 | 0.11 | 0.00 | 86 | 1027.9 |
| 20260509082705 | 58 | 269 | 0.0 | 2.0 | 0.00 | 0.12 | 0.00 | 85 | 1027.8 |
| 20260509082206 | 58 | 269 | 0.0 | 2.0 | 0.00 | 0.12 | 0.00 | 85 | 1027.7 |
| 20260509075705 | 59 | 269 | 2.0 | 3.0 | 0.00 | 0.12 | 0.00 | 85 | 1027.4 |
| 20260509074706 | 59 | 269 | 2.0 | 3.0 | 0.00 | 0.12 | 0.00 | 85 | 1027.3 |
| 20260509073206 | 59 | 212 | 3.0 | 5.0 | 0.00 | 0.12 | 0.00 | 84 | 1027.1 |
| 20260509072705 | 59 | 254 | 3.0 | 7.0 | 0.00 | 0.12 | 0.00 | 84 | 1027.1 |
| 20260509072206 | 60 | 241 | 3.0 | 5.0 | 0.00 | 0.12 | 0.00 | 85 | 1027.0 |
| 20260509070705 | 60 | 271 | 2.0 | 6.0 | 0.00 | 0.12 | 0.00 | 84 | 1027.0 |
| 20260509065205 | 60 | 252 | 2.0 | 7.0 | 0.00 | 0.12 | 0.00 | 84 | 1027.0 |
| 20260509063705 | 61 | 240 | 3.0 | 6.0 | 0.00 | 0.12 | 0.00 | 84 | 1026.9 |
| 20260509063205 | 61 | 230 | 3.0 | 8.0 | 0.00 | 0.12 | 0.00 | 83 | 1026.9 |
| 20260509062705 | 61 | 238 | 4.0 | 8.0 | 0.00 | 0.12 | 0.00 | 83 | 1026.8 |
| 20260509060706 | 62 | 248 | 5.0 | 9.0 | 0.00 | 0.12 | 0.00 | 81 | 1026.7 |
| 20260509055705 | 62 | 216 | 3.0 | 7.0 | 0.00 | 0.12 | 0.00 | 80 | 1026.7 |
| 20260509054704 | 62 | 229 | 2.0 | 7.0 | 0.00 | 0.12 | 0.00 | 79 | 1026.7 |
| 20260509052206 | 63 | 244 | 6.0 | 12.0 | 0.00 | 0.12 | 0.00 | 77 | 1026.5 |
| 20260509050205 | 64 | 226 | 3.0 | 8.0 | 0.00 | 0.12 | 0.00 | 77 | 1026.6 |
| 20260509045706 | 64 | 239 | 3.0 | 7.0 | 0.00 | 0.12 | 0.00 | 78 | 1026.5 |
| 20260509044705 | 64 | 258 | 3.0 | 8.0 | 0.00 | 0.12 | 0.00 | 77 | 1026.5 |
| 20260509042705 | 64 | 238 | 4.0 | 9.0 | 0.00 | 0.12 | 0.00 | 78 | 1026.7 |
| 20260509042206 | 65 | 214 | 3.0 | 7.0 | 0.00 | 0.12 | 0.00 | 79 | 1026.7 |
| 20260509041704 | 64 | 257 | 3.0 | 8.0 | 0.00 | 0.12 | 0.00 | 80 | 1026.7 |
| 20260509040205 | 62 | 292 | 3.0 | 6.0 | 0.00 | 0.12 | 0.00 | 82 | 1026.8 |
| 20260509034705 | 63 | 235 | 5.0 | 12.0 | 0.00 | 0.12 | 0.00 | 79 | 1026.6 |
| 20260509034207 | 64 | 237 | 6.0 | 12.0 | 0.00 | 0.12 | 0.00 | 78 | 1026.6 |
| 20260509033705 | 65 | 239 | 5.0 | 10.0 | 0.00 | 0.12 | 0.00 | 79 | 1026.7 |
| 20260509033205 | 63 | 206 | 5.0 | 10.0 | 0.00 | 0.12 | 0.00 | 80 | 1026.7 |
| 20260509032705 | 63 | 216 | 4.0 | 9.0 | 0.00 | 0.12 | 0.00 | 80 | 1026.8 |
| 20260509030704 | 65 | 223 | 5.0 | 10.0 | 0.00 | 0.12 | 0.00 | 77 | 1026.9 |
| 20260509024205 | 66 | 231 | 3.0 | 6.0 | 0.00 | 0.12 | 0.00 | 75 | 1027.0 |
| 20260509023204 | 64 | 243 | 3.0 | 6.0 | 0.00 | 0.12 | 0.00 | 76 | 1027.2 |
| 20260509021705 | 63 | 257 | 5.0 | 8.0 | 0.00 | 0.12 | 0.00 | 76 | 1027.3 |
| 20260509020704 | 65 | 252 | 2.0 | 7.0 | 0.00 | 0.12 | 0.00 | 77 | 1027.5 |
| 20260509015705 | 62 | 273 | 3.0 | 6.0 | 0.00 | 0.12 | 0.00 | 80 | 1027.5 |
| 20260509013705 | 63 | 166 | 3.0 | 6.0 | 0.00 | 0.12 | 0.00 | 82 | 1027.8 |
| 20260509012704 | 61 | 256 | 1.0 | 5.0 | 0.00 | 0.12 | 0.00 | 83 | 1027.8 |
| 20260509011705 | 61 | 217 | 1.0 | 6.0 | 0.00 | 0.12 | 0.00 | 83 | 1027.9 |
| 20260509010705 | 62 | 257 | 3.0 | 8.0 | 0.00 | 0.12 | 0.00 | 83 | 1027.9 |
| 20260509005706 | 61 | 229 | 2.0 | 5.0 | 0.00 | 0.12 | 0.00 | 82 | 1027.8 |
| 20260509005205 | 61 | 250 | 2.0 | 5.0 | 0.00 | 0.12 | 0.00 | 82 | 1027.8 |
| 20260509004704 | 61 | 233 | 3.0 | 8.0 | 0.00 | 0.12 | 0.00 | 82 | 1027.8 |
| 20260509004205 | 61 | 212 | 1.0 | 7.0 | 0.00 | 0.12 | 0.00 | 82 | 1027.7 |
| 20260509001705 | 62 | 218 | 2.0 | 5.0 | 0.00 | 0.12 | 0.00 | 85 | 1027.7 |
| 20260509001205 | 61 | 157 | 2.0 | 6.0 | 0.00 | 0.12 | 0.00 | 87 | 1027.7 |